FW8046 Weather Reports


time (UTC)temp
F
wind
direction
speed
knots
gust
knots
rain 1hr
in
rain 24hr
in
rain mn
in
humidity
%
barometer
mb
20260507054334 45 344 0.0 0.0 0.00 0.00 0.00 85 1020.3
20260507053831 46 349 0.0 0.0 0.00 0.00 0.00 85 1020.0
20260507053329 46 344 0.0 0.0 0.00 0.00 0.00 84 1020.3
20260507052828 46 344 0.0 0.0 0.00 0.00 0.00 83 1020.0
20260507052324 46 344 0.0 0.0 0.00 0.00 0.00 83 1020.1
20260507051822 46 353 0.0 0.0 0.00 0.00 0.00 83 1020.3
20260507051319 46 344 0.0 0.0 0.00 0.00 0.00 83 1019.9
20260507050816 46 344 0.0 0.0 0.00 0.00 0.00 83 1019.8
20260507050312 46 347 0.0 0.0 0.00 0.00 0.00 83 1020.0
20260507045809 46 343 0.0 0.0 0.00 0.01 0.01 83 1020.0
20260507045307 46 344 0.0 0.0 0.00 0.01 0.01 83 1020.0
20260507044803 46 344 0.0 0.0 0.00 0.01 0.01 83 1019.8
20260507044300 47 346 0.0 0.0 0.00 0.01 0.01 83 1019.5
20260507043755 47 349 0.0 0.0 0.00 0.01 0.01 82 1019.6
20260507043252 47 344 0.0 0.0 0.00 0.01 0.01 82 1019.6
20260507042748 47 344 0.0 0.0 0.00 0.01 0.01 83 1019.4
20260507042244 47 344 0.0 0.0 0.00 0.01 0.01 82 1019.4
20260507041742 47 343 0.0 0.0 0.00 0.01 0.01 81 1019.6
20260507041238 47 344 0.0 0.0 0.00 0.01 0.01 81 1019.6
20260507040735 48 343 0.0 0.0 0.00 0.01 0.01 81 1019.5
20260507040231 48 344 0.0 0.0 0.00 0.01 0.01 80 1019.4
20260507035727 48 344 0.0 0.0 0.00 0.01 0.01 80 1019.5
20260507035223 48 346 0.0 0.0 0.00 0.01 0.01 79 1019.5
20260507034720 48 346 0.0 0.0 0.00 0.01 0.01 79 1019.5
20260507034217 49 346 0.0 0.0 0.00 0.01 0.01 79 1019.4
20260507033716 49 347 0.0 0.0 0.00 0.01 0.01 78 1019.6
20260507033213 49 356 0.0 0.0 0.00 0.01 0.01 76 1019.6
20260507032710 50 344 0.0 0.0 0.00 0.01 0.01 75 1019.4
20260507032206 50 344 0.0 0.0 0.00 0.01 0.01 73 1019.5
20260507031703 50 343 0.0 0.0 0.00 0.01 0.01 72 1019.5
20260507031159 51 344 0.0 0.0 0.00 0.01 0.01 72 1019.5
20260507030656 51 340 0.0 0.0 0.00 0.01 0.01 70 1019.1
20260507030154 51 345 0.0 0.0 0.00 0.01 0.01 71 1019.2
20260507025651 51 344 0.0 0.0 0.00 0.01 0.01 72 1019.0
20260507025148 51 345 0.0 0.0 0.00 0.01 0.01 71 1018.9
20260507024646 51 347 0.0 0.0 0.00 0.01 0.01 71 1019.0
20260507024143 52 343 0.0 0.0 0.00 0.01 0.01 71 1018.7
20260507023638 52 343 0.0 0.0 0.00 0.01 0.01 70 1018.8
20260507023136 52 344 0.0 0.0 0.00 0.01 0.01 70 1019.0
20260507022633 52 347 0.0 0.0 0.00 0.01 0.01 70 1018.7
20260507022128 52 341 0.0 0.9 0.00 0.01 0.01 70 1018.6
20260507021625 53 344 0.0 0.9 0.00 0.01 0.01 70 1018.5
20260507021120 53 344 0.0 0.9 0.00 0.01 0.01 70 1018.9
20260507020619 53 349 0.0 0.9 0.00 0.01 0.01 70 1018.8
20260507020115 53 344 0.0 0.9 0.00 0.01 0.01 71 1018.5
20260507015613 53 347 0.0 0.9 0.00 0.01 0.01 71 1018.7
20260507015110 53 344 0.0 0.0 0.00 0.01 0.01 71 1018.4
20260507014607 53 344 0.0 0.0 0.00 0.01 0.01 71 1018.6
20260507014103 53 346 0.0 0.0 0.00 0.01 0.01 70 1018.4
20260507013559 54 344 0.0 0.0 0.00 0.01 0.01 69 1018.7
20260507013056 54 344 0.0 0.0 0.00 0.01 0.01 68 1018.3
20260507012554 55 343 0.0 0.0 0.00 0.01 0.01 67 1018.4
20260507012044 55 344 0.0 0.0 0.00 0.01 0.01 66 1018.4
20260507011542 56 344 0.0 0.0 0.00 0.01 0.01 65 1018.2
20260507011038 56 346 0.0 0.0 0.00 0.01 0.01 64 1018.2
20260507010538 57 343 0.0 0.9 0.00 0.01 0.01 62 1018.1
20260507010034 57 347 0.0 0.0 0.00 0.01 0.01 62 1018.0
20260507005533 57 7 0.0 0.9 0.00 0.01 0.01 61 1017.9
20260507005028 58 1 0.0 0.9 0.00 0.01 0.01 60 1017.9
20260507004526 58 347 0.0 1.7 0.00 0.01 0.01 60 1018.0
20260507004023 58 16 0.0 0.9 0.00 0.01 0.01 59 1018.1
20260507003518 58 6 0.9 1.7 0.00 0.01 0.01 58 1017.9
20260507003014 59 290 0.9 1.7 0.00 0.01 0.01 56 1018.0
20260507002510 59 38 0.0 2.6 0.00 0.01 0.01 57 1018.0
20260507002007 60 356 0.9 1.7 0.00 0.01 0.01 56 1018.0
20260507001503 60 344 0.9 2.6 0.00 0.01 0.01 56 1017.7
20260507001001 60 344 0.0 0.9 0.00 0.01 0.01 56 1017.8
20260507000456 59 340 0.9 1.7 0.00 0.01 0.01 56 1017.8
20260506235952 59 347 0.0 0.9 0.00 0.01 0.01 56 1017.9
20260506235450 60 32 0.9 1.7 0.00 0.01 0.01 56 1017.6
20260506234945 60 85 0.9 1.7 0.00 0.01 0.01 55 1017.8
20260506234443 60 345 1.7 2.6 0.00 0.01 0.01 54 1017.7
20260506233940 61 322 1.7 2.6 0.00 0.01 0.01 53 1017.6
20260506233437 61 353 0.0 0.9 0.00 0.01 0.01 54 1017.7
20260506232933 60 30 0.0 1.7 0.00 0.01 0.01 55 1017.4
20260506232430 60 109 0.9 6.1 0.00 0.01 0.01 54 1017.3
20260506231925 61 51 0.0 1.7 0.00 0.01 0.01 54 1017.6
20260506231423 61 354 0.9 4.3 0.00 0.01 0.01 53 1017.3
20260506230920 62 343 0.9 1.7 0.00 0.01 0.01 53 1017.6
20260506230417 61 344 0.0 1.7 0.00 0.01 0.01 56 1017.1
20260506225913 61 0 0.9 2.6 0.00 0.01 0.01 54 1017.2
20260506225411 61 81 0.0 4.3 0.00 0.01 0.01 55 1017.1
20260506224908 61 348 0.0 2.6 0.00 0.01 0.01 55 1016.7
20260506224405 61 359 0.9 4.3 0.00 0.01 0.01 55 1016.7
20260506223901 62 99 1.7 4.3 0.00 0.01 0.01 55 1016.7
20260506223356 62 295 0.0 5.2 0.00 0.01 0.01 55 1016.5
20260506222854 62 23 0.9 2.6 0.00 0.01 0.01 56 1016.4
20260506222349 63 1 0.0 2.6 0.00 0.01 0.01 54 1016.6
20260506221847 62 344 0.0 4.3 0.00 0.01 0.01 55 1016.4
20260506221344 62 341 0.0 2.6 0.00 0.01 0.01 56 1016.4
20260506220842 61 9 0.9 1.7 0.00 0.01 0.01 57 1016.6
20260506220337 60 328 0.9 2.6 0.00 0.01 0.01 60 1016.4
20260506215834 60 73 0.9 0.9 0.00 0.01 0.01 59 1016.7
20260506215330 60 346 0.0 1.7 0.00 0.01 0.01 59 1016.8
20260506214826 60 357 0.9 2.6 0.00 0.01 0.01 58 1016.7
20260506214323 60 36 1.7 5.2 0.00 0.01 0.01 58 1016.8
20260506213821 60 107 2.6 5.2 0.00 0.01 0.01 58 1016.9
20260506213318 61 188 0.9 1.7 0.00 0.01 0.01 60 1016.9
20260506212816 60 344 0.9 2.6 0.00 0.01 0.01 59 1017.0
20260506212311 61 100 2.6 2.6 0.00 0.01 0.01 59 1016.9
20260506211806 61 98 0.0 1.7 0.00 0.01 0.01 60 1016.9
20260506211303 60 335 1.7 6.1 0.00 0.01 0.01 59 1016.9
20260506210801 62 343 2.6 5.2 0.00 0.01 0.01 59 1017.2
20260506210257 60 334 0.0 1.7 0.00 0.01 0.01 61 1017.2
20260506205754 60 22 2.6 2.6 0.00 0.01 0.01 60 1017.2
20260506205250 60 40 1.7 4.3 0.00 0.01 0.01 62 1017.4
20260506204746 61 25 1.7 4.3 0.00 0.01 0.01 59 1017.6
20260506204244 62 304 3.5 7.0 0.00 0.01 0.01 59 1017.4
20260506203742 61 65 1.7 4.3 0.00 0.01 0.01 60 1017.4
20260506203239 60 257 2.6 2.6 0.00 0.01 0.01 61 1017.6
20260506202736 59 79 2.6 5.2 0.00 0.01 0.01 62 1017.7
20260506202233 60 52 0.9 4.3 0.00 0.01 0.01 61 1017.9
20260506201730 60 21 0.9 5.2 0.00 0.01 0.01 60 1017.7
20260506201226 60 9 0.9 2.6 0.00 0.01 0.01 61 1017.9
20260506200723 59 116 0.0 0.9 0.00 0.01 0.01 62 1017.9
20260506200220 60 254 1.7 2.6 0.00 0.01 0.01 61 1018.1
20260506195716 60 336 0.9 6.1 0.00 0.01 0.01 59 1018.0
20260506195212 60 128 0.9 5.2 0.00 0.01 0.01 60 1018.2
20260506194704 60 11 0.9 2.6 0.00 0.01 0.01 57 1018.2
20260506194201 60 338 0.9 2.6 0.00 0.01 0.01 58 1018.4
20260506193658 61 92 0.0 4.3 0.00 0.01 0.01 58 1018.4
20260506193155 63 25 1.7 2.6 0.00 0.01 0.01 57 1017.8
20260506192652 61 290 0.9 2.6 0.00 0.01 0.01 59 1018.1
20260506192148 61 348 1.7 4.3 0.00 0.01 0.01 58 1018.3
20260506191645 62 272 0.9 2.6 0.00 0.01 0.01 59 1018.3
20260506191141 61 1 0.9 5.2 0.00 0.01 0.01 60 1018.2
20260506190639 60 345 0.9 4.3 0.00 0.01 0.01 63 1018.4
20260506190135 60 170 0.0 0.9 0.00 0.01 0.01 62 1018.2
20260506185632 60 352 0.0 0.9 0.00 0.01 0.01 60 1018.4
20260506185128 60 17 0.9 2.6 0.00 0.01 0.01 63 1018.2
20260506184626 60 328 0.9 4.3 0.00 0.01 0.01 63 1018.4
20260506184123 60 354 0.9 2.6 0.00 0.01 0.01 62 1018.4
20260506183620 62 355 1.7 1.7 0.00 0.01 0.01 59 1018.5
20260506183116 60 1 0.0 1.7 0.00 0.01 0.01 64 1018.7
20260506182614 59 19 1.7 2.6 0.00 0.01 0.01 64 1018.9
20260506182110 57 3 0.0 0.9 0.00 0.01 0.01 64 1018.8
20260506181608 57 345 0.0 2.6 0.00 0.01 0.01 64 1018.9
20260506181105 57 0 0.9 0.9 0.00 0.01 0.01 65 1019.4
20260506180602 57 26 2.6 2.6 0.00 0.01 0.01 65 1019.1
20260506180058 57 63 2.6 4.3 0.00 0.01 0.01 63 1019.4
20260506175554 58 110 0.0 0.9 0.00 0.01 0.01 64 1019.5
20260506175051 58 21 0.9 1.7 0.00 0.01 0.01 64 1019.4
20260506174550 58 29 0.0 1.7 0.00 0.01 0.01 63 1019.6
20260506174045 59 65 0.9 1.7 0.00 0.01 0.01 62 1019.7
20260506173543 59 340 0.0 0.9 0.00 0.01 0.01 64 1019.8
20260506173040 59 329 0.0 0.9 0.00 0.01 0.01 61 1019.8
20260506172537 58 340 0.9 1.7 0.00 0.01 0.01 64 1020.0
20260506172033 58 67 0.9 1.7 0.00 0.01 0.01 64 1019.8
20260506171531 57 340 0.0 2.6 0.00 0.01 0.01 65 1019.9
20260506171028 57 353 0.0 1.7 0.00 0.01 0.01 66 1019.8
20260506170526 57 7 0.0 4.3 0.00 0.01 0.01 66 1019.9
20260506170018 56 351 0.0 4.3 0.00 0.01 0.01 67 1020.0
20260506165516 56 317 0.9 2.6 0.00 0.01 0.01 67 1019.9
20260506165012 57 350 0.0 4.3 0.00 0.01 0.01 67 1019.9
20260506164508 57 333 1.7 2.6 0.00 0.01 0.01 65 1019.3
20260506164006 56 46 0.0 2.6 0.00 0.01 0.01 66 1019.6
20260506163502 56 358 0.0 0.9 0.00 0.01 0.01 67 1019.2
20260506162956 56 11 1.7 4.3 0.00 0.01 0.01 67 1019.3
20260506162454 56 294 1.7 2.6 0.00 0.01 0.01 68 1019.3
20260506161951 56 38 0.9 1.7 0.00 0.01 0.01 67 1019.1
20260506161449 56 346 2.6 7.0 0.00 0.01 0.01 67 1018.8
20260506160946 56 104 1.7 2.6 0.00 0.01 0.01 68 1018.9
20260506160443 56 79 1.7 2.6 0.00 0.01 0.01 69 1018.9
20260506155941 54 344 0.0 2.6 0.00 0.01 0.01 72 1018.6
20260506155438 54 90 0.9 2.6 0.00 0.01 0.01 73 1018.8
20260506153605 52 19 1.7 4.3 0.00 0.01 0.01 75 1018.8
20260506153102 52 59 1.7 5.2 0.00 0.01 0.01 75 1018.7
20260506152559 52 42 0.9 2.6 0.00 0.01 0.01 76 1018.7
20260506152057 51 70 2.6 4.3 0.00 0.01 0.01 76 1018.5
20260506151555 51 9 0.9 4.3 0.00 0.01 0.01 77 1018.6
20260506151052 51 112 0.9 5.2 0.00 0.01 0.01 78 1018.8
20260506150548 50 103 3.5 6.1 0.00 0.01 0.01 79 1018.5
20260506150045 50 90 1.7 2.6 0.00 0.01 0.01 79 1018.4
20260506145542 50 35 1.7 2.6 0.00 0.01 0.01 79 1018.8
20260506145039 50 315 2.6 2.6 0.00 0.01 0.01 78 1018.8
20260506144536 50 335 1.7 2.6 0.00 0.01 0.01 78 1018.7
20260506144033 50 53 1.7 4.3 0.00 0.01 0.01 79 1018.7
20260506143531 50 40 1.7 4.3 0.00 0.01 0.01 79 1018.7
20260506143029 50 156 1.7 2.6 0.00 0.01 0.01 79 1018.4
20260506142526 51 147 1.7 4.3 0.00 0.01 0.01 79 1018.4
20260506142025 50 46 0.9 0.9 0.00 0.01 0.01 80 1018.3
20260506141522 50 95 1.7 2.6 0.00 0.01 0.01 80 1018.3
20260506141020 50 66 0.0 2.6 0.00 0.01 0.01 80 1018.5
20260506140517 49 109 1.7 4.3 0.00 0.01 0.01 80 1018.7
20260506140015 49 42 1.7 1.7 0.00 0.01 0.01 80 1018.6
20260506135511 49 116 2.6 7.0 0.00 0.01 0.01 80 1018.4
20260506135007 49 179 0.9 7.8 0.00 0.01 0.01 81 1018.5
20260506134504 49 51 1.7 5.2 0.00 0.01 0.01 82 1018.5
20260506134000 49 289 0.0 4.3 0.00 0.01 0.01 83 1018.6
20260506133457 48 106 2.6 4.3 0.00 0.01 0.01 84 1018.5
20260506132954 48 36 0.9 2.6 0.00 0.01 0.01 85 1018.6
20260506132451 48 116 0.9 1.7 0.00 0.01 0.01 85 1018.4
20260506131948 48 323 0.9 1.7 0.00 0.01 0.01 86 1018.3
20260506131445 47 99 1.7 2.6 0.00 0.01 0.01 87 1018.3
20260506130942 47 353 0.9 1.7 0.00 0.01 0.01 87 1018.5
20260506130439 47 121 0.0 0.9 0.00 0.01 0.01 87 1018.3
20260506125936 47 9 0.9 4.3 0.00 0.01 0.01 88 1018.3
20260506125435 46 332 0.9 4.3 0.00 0.01 0.01 88 1018.3
20260506124932 46 350 0.0 4.3 0.00 0.01 0.01 89 1018.1
20260506124430 46 5 0.0 4.3 0.00 0.01 0.01 89 1018.0
20260506123927 46 54 0.9 2.6 0.00 0.01 0.01 89 1018.1
20260506123425 46 345 1.7 2.6 0.00 0.01 0.01 90 1018.4
20260506122922 46 355 0.9 1.7 0.00 0.01 0.01 90 1018.3
20260506122419 46 79 0.9 1.7 0.00 0.01 0.01 89 1017.8
20260506121918 46 13 3.5 6.1 0.00 0.01 0.01 89 1017.8
20260506121414 46 84 0.0 1.7 0.00 0.01 0.01 89 1018.1
20260506120911 46 9 0.0 2.6 0.00 0.01 0.01 89 1017.9
20260506120409 46 5 0.0 0.9 0.00 0.01 0.01 89 1017.8
20260506115906 46 56 2.6 5.2 0.00 0.01 0.01 89 1017.7
20260506115404 46 11 0.9 0.9 0.00 0.01 0.01 89 1017.4
20260506114902 45 343 0.9 2.6 0.00 0.01 0.01 89 1017.8
20260506114359 46 68 0.9 1.7 0.00 0.01 0.01 89 1017.7
20260506113858 45 71 0.9 1.7 0.00 0.01 0.01 89 1017.4
20260506113355 45 101 0.0 1.7 0.00 0.01 0.01 89 1017.3
20260506112851 45 11 0.9 2.6 0.00 0.01 0.01 89 1017.7
20260506112349 45 67 0.9 2.6 0.00 0.01 0.01 89 1017.7
20260506111846 46 88 1.7 4.3 0.00 0.01 0.01 89 1017.3
20260506111344 45 43 0.9 1.7 0.00 0.01 0.01 89 1017.4
20260506110841 46 349 0.0 0.9 0.00 0.01 0.01 89 1017.1
20260506110338 46 346 1.7 4.3 0.00 0.01 0.01 89 1017.0
20260506105835 46 275 0.0 1.7 0.00 0.01 0.01 88 1016.9
20260506105331 46 344 0.0 0.0 0.00 0.01 0.01 88 1017.0
20260506104829 46 342 0.0 2.6 0.00 0.01 0.01 88 1016.7
20260506104327 46 87 1.7 2.6 0.00 0.01 0.01 88 1016.6
20260506103824 46 323 0.0 0.9 0.00 0.01 0.01 88 1016.4
20260506103321 46 8 1.7 1.7 0.00 0.01 0.01 88 1016.2
20260506102819 46 341 0.0 1.7 0.00 0.01 0.01 88 1016.1
20260506102316 46 347 0.0 1.7 0.00 0.01 0.01 88 1016.3
20260506101814 46 345 0.0 0.9 0.00 0.01 0.01 88 1015.7
20260506101309 46 0 0.0 1.7 0.00 0.01 0.01 88 1015.6
20260506100808 46 346 0.0 1.7 0.00 0.01 0.01 88 1015.4
20260506100306 46 356 0.0 1.7 0.00 0.01 0.01 88 1015.3
20260506095804 46 105 1.7 2.6 0.00 0.01 0.01 89 1015.2
20260506095300 46 334 0.9 4.3 0.00 0.01 0.01 89 1015.1
20260506094757 46 349 0.9 1.7 0.00 0.01 0.01 89 1015.1
20260506094256 46 19 0.9 1.7 0.00 0.01 0.01 89 1014.7
20260506093754 46 351 1.7 2.6 0.00 0.01 0.01 89 1014.7
20260506093250 46 134 0.9 2.6 0.00 0.01 0.01 90 1014.6
20260506092749 46 25 0.9 0.9 0.00 0.01 0.01 90 1014.5
20260506092246 46 329 0.0 5.2 0.00 0.01 0.01 89 1014.5
20260506091743 46 115 1.7 1.7 0.00 0.01 0.01 89 1014.5
20260506091241 46 38 1.7 2.6 0.00 0.01 0.01 89 1014.7
20260506090738 46 24 1.7 4.3 0.00 0.01 0.01 89 1014.5
20260506090235 46 355 0.9 4.3 0.00 0.01 0.01 89 1014.7
20260506085732 46 111 0.9 4.3 0.00 0.01 0.01 90 1014.9
20260506085228 46 0 0.0 1.7 0.00 0.01 0.01 90 1015.1
20260506084725 46 341 0.9 2.6 0.00 0.01 0.01 90 1014.7
20260506084221 46 349 0.9 1.7 0.00 0.01 0.01 90 1014.6
20260506083718 46 0 0.9 1.7 0.00 0.01 0.01 90 1014.5
20260506083216 46 32 0.9 2.6 0.00 0.01 0.01 90 1014.7
20260506082713 46 107 0.0 1.7 0.00 0.01 0.01 90 1014.9
20260506082209 46 120 0.9 2.6 0.00 0.01 0.01 90 1014.5
20260506081706 46 347 0.9 1.7 0.00 0.01 0.01 90 1014.5
20260506081204 46 354 0.0 2.6 0.00 0.01 0.01 91 1014.2
20260506080701 46 355 0.0 0.9 0.00 0.01 0.01 91 1014.3
20260506080158 46 0 0.9 0.9 0.00 0.01 0.01 91 1013.9
20260506073142 46 343 0.9 2.6 0.00 0.01 0.01 93 1013.9
20260506072638 46 16 0.0 1.7 0.00 0.01 0.01 93 1013.9
20260506072137 46 11 1.7 2.6 0.00 0.01 0.01 93 1014.0
20260506071634 46 1 1.7 2.6 0.00 0.01 0.01 94 1013.9
20260506071131 46 6 0.9 2.6 0.00 0.01 0.01 94 1014.1
20260506070628 46 47 0.0 4.3 0.00 0.01 0.01 94 1013.8
20260506070125 46 6 0.9 1.7 0.00 0.01 0.01 94 1014.1
20260506062103 46 9 0.9 2.6 0.00 0.00 0.00 96 1014.5
20260506061558 46 111 2.6 5.2 0.00 0.00 0.00 96 1014.2
20260506061056 46 187 2.6 5.2 0.00 0.00 0.00 96 1014.2
20260506060555 46 90 0.9 4.3 0.00 0.00 0.00 97 1014.3